Weather in Tongyeong

South Korea     34°53′43″N   128°24′24″E
temp.,
°C
wind,
m/s
gust,
m/s
humid.,
%
clouds,
%
prec.,
mm/h
press.,
hPa
HPBL,
m
23 april, fri
fri2300:00+15ene3456100 0.0 101851
03:00+15ne3552100 0.0 101763
06:00+14n3359100 0.0 101858
09:00+15ne3659100 0.0 1019239
12:00+18ene585582 0.0 1018440
15:00+17e7115596 0.0 1017444
18:00+16e71158100 0.0 1018431
21:00+15ene5961100 0.0 1020353
24 april, sat
sat2400:00+13nne357197 0.0 102095
03:00+13nne357795 0.0 1020181
06:00+12nne238190 0.0 102093
09:00+15ne236539 0.0 1021374
12:00+17ese336132 0.0 1021466
15:00+15ese557139 0.0 1019278
18:00+14ese4578100 0.0 1019240
21:00+14se238286 0.0 102094
25 april, sun
sun2500:00+13ene018669 0.0 101914
03:00+12wnw11855 0.0 101825
06:00+11nnw228715 0.0 101957
09:00+15ene457120 0.0 1020510
12:00+17ese686121 0.0 1020763
15:00+16ese8106671 0.0 1019547
18:00+15e610670 0.0 1019362
21:00+13ene47595 0.0 1022258
26 april, mon
mon2600:00+11ene34616 0.0 1023284
03:00+10nne346557 0.0 1023250
06:00+9nne2368100 0.0 1023198
09:00+12ene4757100 0.0 1023701
12:00+15e7854100 0.0 1023814
15:00+15e7956100 0.0 1021602
18:00+14e5862100 0.0 1021389
21:00+12e476999 0.0 1022279
27 april, tue
tue2700:00+12e3673100 0.0 1022280
03:00+11nne2275100 0.0 1021124
06:00+10n2274100 0.0 102182
09:00+13ene1166100 0.0 1020231
12:00+14sse2477100 0.2 1020364
15:00+13e2292100 0.6 1019156
18:00+16sw2591100 0.2 1018356
21:00+15ssw3396100 0.2 101951